Location: Kott?ru
(16.6209°N, 80.6208°E)
Time: 00:13:56
(UTC+00:00)

Tsikada Rocket - Pass Details

Date: 18 September 2020
Orbit: 958 x 1009 km, 82.9° (Epoch: 26 October)

Event Time Altitude Azimuth Distance (km) Brightness Sun altitude
Rises 12:48:36 0° 7° (N) 3,631 6.9 -3.6°
Reaches altitude 10° 12:51:15 10° 15° (NNE) 2,686 6.2 -4.3°
Maximum altitude 12:56:59 41° 84° (E) 1,356 4.4 -5.7°
Drops below altitude 10° 13:02:44 10° 153° (SSE) 2,701 6.0 -7.0°
Sets 13:05:24 0° 160° (SSE) 3,654 6.8 -7.7°
